Regional Weather Roundup
Issued by NWS Kansas City/Pleasant Hill, MO

Home | Current Version | Previous Version | Graphics & Text | Print | Product List | Glossary Off
Versions: 1 2 3 4 5 6 7 8 9 10 11 12 13 14 15 16 17 18 19 20 21 22 23 24 25 26 27 28 29 30 31 32 33 34 35 36 37 38 39 40 41 42 43 44 45 46 47 48 49 50

000
ASUS43 KEAX 181410
RWREAX

WEATHER ROUNDUP FOR EASTERN KANSAS AND NORTHWEST MISSOURI
NATIONAL WEATHER SERVICE KANSAS CITY/PLEASANT HILL MO
800 AM CST WED JAN 18 2017

KSZ040-057-103>105-MOZ028-029-037-043-181500-
...KANSAS CITY METROPOLITAN AREA...

CITY           SKY/WX    TMP DP  RH WIND       PRES   REMARKS
K.C. INTL      CLOUDY    27  25  92 S8        30.13S FOG     WCI  19
K.C. DOWNTOWN  FOG       31  31 100 CALM      30.15S VSB 1/4
LEES SUMMIT    FOG       31  31 100 S9        30.16R VSB 1/4 WCI  23
OLATHE - IXD   FOG       29  28  96 S8        30.14F VSB 1/4 WCI  21
OLATHE - OJC   FOG       28  28 100 S8        30.14S VSB 1/4 WCI  20
LAWRENCE       CLEAR     23  23 100 E7        30.14R FOG     WCI  15

$$

MOZ001>008-011>017-020>025-030>033-038>040-044>046-053-054-181500-
...NORTHERN AND CENTRAL MISSOURI...

CITY           SKY/WX    TMP DP  RH WIND       PRES   REMARKS
ST. JOSEPH     CLOUDY    28  24  85 S3        30.14F FOG
MOSBY          FOG       32  32 100 S6        30.17S VSB<1/4 WCI  26
WARRENSBURG    CLOUDY    36  34  93 S9        30.19R FOG     WCI  29
WHITEMAN AFB   CLOUDY    36  36 100 S9        30.18R FOG     WCI  29
CLINTON        CLOUDY    36  36 100 S8        30.20S FOG     WCI  29
SEDALIA        CLOUDY    37  35  92 S9        30.20R FOG     WCI  30
WARSAW         NOT AVBL
CHILLICOTHE      N/A     32  32 100 S7        30.16F WCI  26
KIRKSVILLE     CLOUDY    34  33  96 SW8       30.17R FOG     WCI  27

$$

MOZ041-047>049-056>058-063>065-088>090-097-181500-
...EASTERN AND SOUTHERN MISSOURI...

CITY           SKY/WX    TMP DP  RH WIND       PRES   REMARKS
ST. LOUIS INTL CLOUDY    37  30  75 W3        30.23R
SPIRIT OF STL  CLOUDY    36  33  89 SW5       30.24R WCI  32
COLUMBIA       CLOUDY    36  33  89 S6        30.20S WCI  31
JEFFERSON CITY CLOUDY    36  32  85 SE5       30.23S WCI  32
ROLLA          CLOUDY    34  32  92 SW7       30.21R WCI  28
OSAGE BEACH    CLOUDY    37  34  89 SE6       30.23R WCI  32
SPRINGFIELD    FOG       36  35  96 E6        30.19F VSB 1/4 WCI  31
BRANSON        FOG       36  36 100 CALM      30.20F VSB 1/8
JOPLIN         FOG       34  34 100 SE8       30.20S VSB 1/4 WCI  27
WEST PLAINS    FOG       36  35  96 CALM      30.22S VSB 1/4

$$

IAZ060-094-KSZ022-034>040-054-083-096-NEZ052-066-093-181500-
...KANSAS...SOUTHEAST NEBRASKA AND IOWA...

CITY           SKY/WX    TMP DP  RH WIND       PRES   REMARKS
TOPEKA         CLOUDY    26  22  84 CALM      30.12S
MANHATTAN      CLEAR     24  22  91 CALM      30.08F
EMPORIA        CLEAR     29  29 100 S9        30.12S WCI  20
CHANUTE        FOG       32  31  96 E5        30.15F VSB 1/4 WCI  27
WICHITA        PTCLDY    31  29  92 S7        30.11R WCI  24
OMAHA          CLOUDY    27  22  81 SE10      30.04S WCI  17
LINCOLN        CLOUDY    27  25  92 S7        30.04F WCI  19
FALLS CITY     CLEAR     28  26  92 S8        30.09F WCI  20
LAMONI         FOG       28  27  96 S10       30.10S VSB 1/4 WCI  19
DES MOINES     FOG       31  30  96 S7        30.08S VSB 1/8 WCI  24

$$




USA.gov is the U.S. government's official web portal to all federal, state and local government web resources and services.